Content
SEND FEEDBACK

Daily
Averages
Monthly
Summary
Canada

BEDFORD, QUEBEC


Home > North America > Canada > Quebec
Elevation: 174 feet     Latitude: 45 28N     Longitude: 073 45W

WEATHER
 
SELECT A DAY
Number of Records: 198,022;   Date Range: 1/1/95 - 7/20/14
 
SHARE

PRINT THIS DATA

[ ← Previous Day ]
WEATHER ALMANAC - FEBRUARY 5, 2013
[ Next Day → ]
[ °C ]   °F
Weather ElementAverageHighLow
Temperature7.5 °F15.8 °F (6:00 pm)-2.2 °F (4:00 am)
Dewpoint-8 °F-0.4 °F (6:00 pm)-15 °F (1:00 am)
Humidity47.4 %61 % (9:00 am)31 % (1:00 pm)
Barometer30.00 in30.06 in (9:00 am)29.91 in (11:00 pm)
Wind Speed4.4 mph8.1 mph (12:00 pm)
Weather ElementAverage
Visibility22.1 mi
Wind DirectionSSE (164.4 °)

Weather ElementTotal
Precipitation---
Heating Degree Days58.2 (Base 65)
Averaged from 27 records on February 5, 2013
WEATHER CONDITIONS BREAKOUT
WIND DIRECTION BREAKOUT
WEATHER BY HOUR - FEBRUARY 5, 2013
[ °C ]   °F
Local TimeTemperatureDewpointHumidityBarometerVisibilityWind DirectionWind SpeedGust SpeedPrecipitationEventsConditions
1:00 AM0.0 °F-15.0 °F33 %29.99 in15.0 miWNW (290°)6.9 mph
1:00 AM1.4 °F-14.8 °F47 %29.99 in15.0 miWNW (290°)6.9 mphClear
2:00 AM-0.4 °F-13.0 °F55 %30.01 in15.0 miWest (280°)4.6 mphClear
3:00 AM-0.4 °F-14.8 °F51 %30.01 in15.0 miWest (270°)4.6 mphClear
4:00 AM-2.2 °F-14.8 °F55 %30.02 in15.0 miWNW (290°)3.5 mphClear
5:00 AM-2.2 °F-13.0 °F60 %30.03 in15.0 miNW (320°)2.3 mphClear
6:00 AM-0.4 °F-14.8 °F51 %30.04 in15.0 miNE (40°)2.3 mphClear
7:00 AM-2.0 °F-14.0 °F40 %30.04 in28.0 miNE (50°)2.3 mphClear
7:00 AM-2.2 °F-14.8 °F55 %30.04 in30.0 miNE (50°)2.3 mphPartly Cloudy
8:00 AM1.4 °F-11.2 °F56 %30.05 in30.0 miEast (90°)2.3 mphPartly Cloudy
9:00 AM3.2 °F-7.6 °F61 %30.06 in30.0 miWSW (240°)4.6 mphPartly Cloudy
10:00 AM5.0 °F-9.4 °F52 %30.06 in30.0 miSouth (180°)4.6 mphPartly Cloudy
11:00 AM6.8 °F-7.6 °F52 %30.06 in30.0 miSouth (170°)5.8 mphPartly Cloudy
12:00 PM10.4 °F-5.8 °F48 %30.05 in30.0 miSSW (210°)8.1 mphPartly Cloudy
1:00 PM11.0 °F-6.0 °F31 %30.02 in28.0 miSSW (200°)3.5 mphClear
1:00 PM12.2 °F-5.8 °F45 %30.02 in30.0 miSW (220°)3.5 mphPartly Cloudy
2:00 PM12.2 °F-5.8 °F45 %30.01 in30.0 miSW (230°)3.5 mphScattered Clouds
3:00 PM14.0 °F-7.6 °F38 %30.00 in30.0 miSouth (190°)2.3 mphMostly Cloudy
4:00 PM14.0 °F-5.8 °F41 %29.99 in30.0 miCalmMostly Cloudy
5:00 PM14.0 °F-4.0 °F45 %29.98 in30.0 miSE (140°)2.3 mphOvercast
6:00 PM15.8 °F-0.4 °F49 %29.97 in15.0 miSE (130°)6.9 mphOvercast
7:00 PM15.0 °F-1.0 °F33 %29.96 in15.0 miESE (110°)8.1 mphOvercast
7:00 PM14.0 °F-0.4 °F53 %29.96 in15.0 miESE (110°)6.9 mphOvercast
8:00 PM15.8 °F-2.2 °F45 %29.95 in15.0 miEast (90°)5.8 mphOvercast
9:00 PM14.0 °F-2.2 °F49 %29.94 in15.0 miEast (80°)5.8 mphOvercast
10:00 PM15.8 °F-2.2 °F45 %29.93 in15.0 miENE (70°)4.6 mphOvercast
11:00 PM15.8 °F-2.2 °F45 %29.91 in15.0 miEast (100°)5.8 mphMostly Cloudy
Hourly data recorded from CYUL, located miles away from Bedford, Quebec







STORIES FROM OUR PARTNERS